Voltar ao catálogo

STARLINK-5202

AtivoComunicaçõesVLEO
NORAD 54761·PAYLOAD·🇺🇸 United States

Lançado Dec 17, 2022 de Cape Canaveral Space Force Station

Loading…

Próximas Passagens (próximas 24 horas)

TLE

AtualizadoSource: CelesTrak SupGP

Época: Sep 15, 2026, 02:04 UTC

1 54761C 22175D   26258.08659722 -.00016980  00000+0 -54603-3 0  2586
2 54761  53.1576 263.0340 0001425  84.8320  52.5762 15.31709430    18

Acompanhe STARLINK-5202 em tempo real com AllMySat

Download on the App Store